KD2GO Weather Reports


Display with metric or nautical units.
time (UTC)temp
F
wind
direction
speed
MPH
gust
MPH
rain 1hr
in
rain 24hr
in
rain mn
in
humidity
%
barometer
mb
20260506024459 69 360 2.0 5.0 0.00 0.07 0.07 56 1009.8
20260506022959 70 337 3.0 8.0 0.00 0.07 0.07 53 1009.8
20260506021458 70 359 2.0 7.0 0.00 0.07 0.07 53 1009.6
20260506020001 71 23 3.0 10.0 0.00 0.07 0.07 51 1009.6
20260506012959 71 94 4.0 17.0 0.00 0.07 0.07 51 1009.3
20260506011458 72 12 3.0 9.0 0.00 0.07 0.07 51 1009.2
20260506005957 72 340 3.0 13.0 0.00 0.07 0.07 51 1009.0
20260506001457 73 7 2.0 7.0 0.00 0.07 0.07 46 1008.5
20260505235958 74 351 3.0 10.0 0.00 0.07 0.07 44 1008.5
20260505232958 75 41 4.0 10.0 0.00 0.07 0.07 42 1008.4
20260505231458 76 354 5.0 11.0 0.00 0.07 0.07 40 1008.1
20260505225958 77 316 5.0 12.0 0.00 0.07 0.07 39 1008.1
20260505224458 77 309 7.0 19.0 0.00 0.07 0.07 38 1007.9
20260505222957 77 299 6.0 15.0 0.00 0.07 0.07 38 1007.9
20260505221458 77 296 7.0 21.0 0.00 0.07 0.07 38 1007.9
20260505214459 78 347 5.0 16.0 0.00 0.07 0.07 38 1008.0
20260505212959 78 257 7.0 22.0 0.00 0.07 0.07 38 1008.0
20260505205957 78 295 7.0 17.0 0.00 0.07 0.07 37 1007.6
20260505204458 79 279 7.0 16.0 0.00 0.07 0.07 37 1007.7
20260505202957 78 271 8.0 20.0 0.00 0.07 0.07 35 1007.8
20260505200000 79 276 7.0 14.0 0.00 0.07 0.07 34 1007.9
20260505192958 79 343 9.0 21.0 0.00 0.07 0.07 32 1007.8
20260505184457 79 359 6.0 19.0 0.00 0.07 0.07 37 1008.3
20260505181457 79 333 6.0 19.0 0.00 0.07 0.07 38 1008.6
20260505174457 79 13 5.0 12.0 0.00 0.07 0.07 44 1009.0
20260505172957 79 297 5.0 15.0 0.00 0.07 0.07 44 1009.0
20260505171458 78 25 7.0 13.0 0.00 0.07 0.07 46 1009.2
20260505170000 78 297 3.0 8.0 0.00 0.07 0.07 45 1009.4
20260505164457 78 352 4.0 14.0 0.00 0.07 0.07 50 1009.7
20260505162957 77 323 6.0 14.0 0.00 0.07 0.07 47 1009.9
20260505161457 76 323 5.0 13.0 0.00 0.07 0.07 46 1009.8
20260505152957 74 253 3.0 8.0 0.00 0.07 0.07 53 1010.2
20260505151458 73 327 4.0 10.0 0.00 0.07 0.07 53 1010.4
20260505124457 60 283 2.0 5.0 0.00 0.07 0.07 76 1011.0
20260505122958 59 359 2.0 6.0 0.00 0.07 0.07 76 1011.0
20260505121457 59 274 1.0 4.0 0.00 0.07 0.07 78 1010.9
20260505115957 59 46 1.0 4.0 0.00 0.07 0.07 78 1010.8
20260505114457 58 65 0.0 2.0 0.00 0.07 0.07 80 1010.7
20260505112956 57 167 0.0 3.0 0.00 0.07 0.07 84 1010.7
20260505111456 55 172 0.0 2.0 0.00 0.07 0.07 85 1010.9
20260505101458 53 360 0.0 2.0 0.06 0.07 0.07 82 1010.4
20260505092956 54 308 2.0 3.0 0.06 0.06 0.06 84 1010.4
20260505091456 55 15 2.0 4.0 0.01 0.01 0.01 78 1010.5
20260505084456 57 16 2.0 5.0 0.00 0.00 0.00 72 1010.1
20260505082956 57 56 1.0 3.0 0.00 0.00 0.00 68 1009.8
20260505081456 57 56 1.0 3.0 0.00 0.00 0.00 69 1009.8
20260505075958 57 338 0.0 1.0 0.00 0.00 0.00 68 1009.7
20260505072956 58 338 1.0 3.0 0.00 0.00 0.00 66 1009.8
20260505065958 58 338 1.0 4.0 0.00 0.00 0.00 65 1009.9
20260505064456 58 328 1.0 5.0 0.00 0.00 0.00 64 1009.8
20260505061456 58 169 1.0 4.0 0.00 0.00 0.00 64 1009.9
20260505055958 58 53 1.0 3.0 0.00 0.00 0.00 62 1009.9
20260505052956 58 34 1.0 3.0 0.00 0.00 0.00 61 1010.0
20260505051456 58 88 2.0 4.0 0.00 0.00 0.00 61 1009.9
20260505041500 59 95 2.0 5.0 0.00 0.00 0.00 58 1009.8
20260505040000 59 93 2.0 4.0 0.00 0.00 0.00 58 1009.7
20260505034459 59 89 2.0 5.0 0.00 0.00 0.00 58 1009.8
20260505032959 59 90 2.0 5.0 0.00 0.00 0.00 56 1009.9
20260505031459 60 59 2.0 4.0 0.00 0.00 0.00 56 1010.0
20260505030001 60 61 2.0 4.0 0.00 0.00 0.00 55 1010.0